DW4719 Vilanova I la Geltru ES current weather conditions

sailwx.info

Wind from 360

Air temperature 16.1° C
Dewpoint 12.1° C

Last reported at 2014-Nov-23 01:49 UTC.
Time now 2014-Nov-23 02:08 UTC

Location: N 41°13' E 001°44'.
View on Google Maps.

See reports from other nearby stations

  
Tides and Currents Weather Stations Pressure Air Temp Water Temp Dewpoint Dewpoint Depression Visibility Wind Speed Wind Dir Waves Ship Positions
date/time (UTC)wind fromknots sea level pressurealtimeterstation pressurevisibilityair tempwater tempwave heightnotes
2014-Nov-23 01:49 360 16.1
2014-Nov-23 01:34 360 16.1
2014-Nov-23 01:19 360 16.1
2014-Nov-23 01:04 360 16.7
2014-Nov-23 00:55 359 16.7
2014-Nov-23 00:50 359 16.7
2014-Nov-23 00:49 359 16.7
2014-Nov-23 00:45 356 16.7
2014-Nov-23 00:34 356 16.7
2014-Nov-23 00:19 352 16.7
2014-Nov-23 00:04 349 16.7
2014-Nov-22 23:55 360 16.7
2014-Nov-22 23:50 031 16.7
2014-Nov-22 23:49 027 16.7
2014-Nov-22 23:45 360 16.7
2014-Nov-22 23:34 360 0 16.7
2014-Nov-22 23:19 264 16.7
2014-Nov-22 23:04 086 16.7
2014-Nov-22 22:55 086 16.7
2014-Nov-22 22:50 086 16.7
2014-Nov-22 22:49 086 16.7
2014-Nov-22 22:45 089 16.7
2014-Nov-22 22:34 089 16.7
2014-Nov-22 22:19 089 16.7
2014-Nov-22 22:04 089 16.7
2014-Nov-22 21:55 089 16.7
2014-Nov-22 21:50 089 16.7
2014-Nov-22 21:49 089 16.7
2014-Nov-22 21:45 089 16.7
2014-Nov-22 21:33 089 16.7
2014-Nov-22 21:19 089 16.7
2014-Nov-22 21:03 089 16.7
2014-Nov-22 20:55 089 16.7
2014-Nov-22 20:50 089 17.2
2014-Nov-22 20:49 089 17.2
2014-Nov-22 20:45 089 17.2
2014-Nov-22 20:33 089 17.2
2014-Nov-22 20:19 090 17.2
2014-Nov-22 20:03 090 17.2
2014-Nov-22 19:55 090 17.2
2014-Nov-22 19:50 090 17.2
2014-Nov-22 19:45 090 17.2
2014-Nov-22 19:41 090 17.2
2014-Nov-22 19:35 090 17.2
2014-Nov-22 19:30 090 17.2
2014-Nov-22 19:25 090 17.2
2014-Nov-22 19:20 090 17.2
2014-Nov-22 19:15 090 17.2
2014-Nov-22 19:11 090 17.2
2014-Nov-22 19:05 090 17.2
2014-Nov-22 19:00 090 17.2
2014-Nov-22 18:55 090 17.2
2014-Nov-22 18:50 090 17.2
2014-Nov-22 18:49 090 17.2
2014-Nov-22 18:45 133 17.2
2014-Nov-22 18:34 133 17.2
2014-Nov-22 18:19 175 17.8
2014-Nov-22 18:04 175 17.8
2014-Nov-22 17:55 174 17.8
2014-Nov-22 17:50 175 17.8
2014-Nov-22 17:49 175 17.8
2014-Nov-22 17:44 174 17.8
2014-Nov-22 17:34 051 17.8
2014-Nov-22 17:19 051 18.9
2014-Nov-22 17:05 096 18.3
2014-Nov-22 16:49 128 18.3
2014-Nov-22 16:34 128 18.9
2014-Nov-22 16:19 128 18.9
2014-Nov-22 16:04 134 18.9
2014-Nov-22 15:49 134 18.9
2014-Nov-22 15:34 134 18.9
2014-Nov-22 15:19 147 19.4
2014-Nov-22 15:04 147 19.4
2014-Nov-22 14:55 145 20.0
2014-Nov-22 14:49 145 20.0
2014-Nov-22 14:45 145 20.0
2014-Nov-22 14:34 079 20.0
2014-Nov-22 14:19 147 20.0
2014-Nov-22 14:04 208 20.0
2014-Nov-22 13:55 208 20.0
2014-Nov-22 13:49 208 20.0
2014-Nov-22 13:45 208 20.0
2014-Nov-22 13:34 208 20.0
2014-Nov-22 13:19 008 20.0
2014-Nov-22 13:04 008 19.4
2014-Nov-22 12:55 056 19.4
2014-Nov-22 12:51 058 20.0
2014-Nov-22 12:45 058 20.0
2014-Nov-22 12:40 058 19.4
2014-Nov-22 12:35 056 19.4
2014-Nov-22 12:30 056 19.4
2014-Nov-22 12:25 052 19.4
2014-Nov-22 12:21 052 19.4
2014-Nov-22 12:15 055 19.4
2014-Nov-22 12:10 055 18.9
2014-Nov-22 12:04 055 18.9
2014-Nov-22 12:00 054 18.9
2014-Nov-22 11:55 069 18.9
2014-Nov-22 11:51 069 18.9
2014-Nov-22 11:49 068 18.9
2014-Nov-22 11:45 069 18.9
2014-Nov-22 11:34 055 18.9
2014-Nov-22 11:18 071 0 18.3
2014-Nov-22 11:04 304 18.3
2014-Nov-22 10:54 304 18.3
2014-Nov-22 10:50 272 17.8
2014-Nov-22 10:48 272 17.8
2014-Nov-22 10:45 272 17.8
2014-Nov-22 10:34 217 17.8
2014-Nov-22 10:18 030 17.8
2014-Nov-22 10:04 360 17.2
2014-Nov-22 09:54 360 17.2
2014-Nov-22 09:50 359 17.2
2014-Nov-22 09:48 360 17.2
2014-Nov-22 09:45 359 17.2
2014-Nov-22 09:34 359 17.2
2014-Nov-22 09:20 356 16.7
2014-Nov-22 09:04 353 16.1
2014-Nov-22 08:56 350 16.1
2014-Nov-22 08:50 350 16.1
2014-Nov-22 08:45 337 0 16.1
2014-Nov-22 08:34 340 0 16.1
2014-Nov-22 08:19 025 16.1
2014-Nov-22 08:04 030 0 16.1
2014-Nov-22 07:59 360 16.1
2014-Nov-22 07:55 016 16.1
2014-Nov-22 07:50 360 0 16.1
2014-Nov-22 07:49 339 16.1
2014-Nov-22 07:45 343 16.1
2014-Nov-22 07:34 001 15.6
2014-Nov-22 07:19 342 15.6
2014-Nov-22 07:04 359 15.6
2014-Nov-22 06:50 090 15.6
2014-Nov-22 06:34 360 16.1
2014-Nov-22 06:19 061 16.1
2014-Nov-22 06:04 061 16.1
2014-Nov-22 05:55 061 16.1
2014-Nov-22 05:50 061 16.1
2014-Nov-22 05:49 061 16.1
2014-Nov-22 05:45 061 16.1
2014-Nov-22 05:34 061 16.1
2014-Nov-22 05:19 061 16.1
2014-Nov-22 05:04 061 16.1
2014-Nov-22 04:55 055 16.1
2014-Nov-22 04:50 054 16.1
2014-Nov-22 04:49 054 16.1
2014-Nov-22 04:45 054 16.1
2014-Nov-22 04:34 051 16.1
2014-Nov-22 04:19 051 16.1
2014-Nov-22 04:04 052 16.1
2014-Nov-22 03:55 052 16.1
2014-Nov-22 03:50 052 16.1
2014-Nov-22 03:49 052 16.1
2014-Nov-22 03:45 052 16.1
2014-Nov-22 03:34 052 16.1
2014-Nov-22 03:19 052 16.1
2014-Nov-22 03:04 052 16.1
2014-Nov-22 02:55 052 16.1
2014-Nov-22 02:50 052 16.1
2014-Nov-22 02:49 052 16.1
2014-Nov-22 02:45 052 16.1
2014-Nov-22 02:34 052 16.1
2014-Nov-22 02:19 052 16.1
2014-Nov-22 02:04 052 16.1
2014-Nov-22 01:55 052 16.1
2014-Nov-22 01:50 052 16.1
2014-Nov-22 01:49 052 16.1
2014-Nov-22 01:45 052 16.1
2014-Nov-22 01:34 052 16.7
2014-Nov-22 01:19 052 16.7
2014-Nov-22 01:04 052 16.7
2014-Nov-22 00:55 052 16.7
2014-Nov-22 00:50 052 16.7
2014-Nov-22 00:45 052 16.7
2014-Nov-22 00:40 052 16.1
2014-Nov-22 00:35 052 16.1
2014-Nov-22 00:30 052 16.1
2014-Nov-22 00:25 052 16.1
2014-Nov-22 00:20 055 16.1
2014-Nov-22 00:15 056 16.1
2014-Nov-22 00:10 056 16.1
2014-Nov-22 00:06 056 16.1
2014-Nov-22 00:00 056 16.7
2014-Nov-21 23:55 056 16.7
2014-Nov-21 23:50 056 16.7
2014-Nov-21 23:49 056 16.7
2014-Nov-21 23:45 056 16.1
2014-Nov-21 23:33 056 16.1
2014-Nov-21 23:19 056 16.1
2014-Nov-21 23:03 056 16.1
2014-Nov-21 22:55 056 16.1
2014-Nov-21 22:50 056 16.1
2014-Nov-21 22:45 056 16.1
2014-Nov-21 22:39 056 16.1
2014-Nov-21 22:36 056 16.1
2014-Nov-21 22:30 056 16.1
2014-Nov-21 22:25 056 15.6
2014-Nov-21 22:20 056 15.6
2014-Nov-21 22:15 056 15.6
2014-Nov-21 22:09 056 15.6
2014-Nov-21 22:05 056 15.6
2014-Nov-21 22:00 056 15.6
2014-Nov-21 21:55 056 15.6
2014-Nov-21 21:50 056 15.6
2014-Nov-21 21:49 056 15.6
2014-Nov-21 21:45 056 15.6
2014-Nov-21 21:35 056 15.6
2014-Nov-21 21:19 055 15.6
2014-Nov-21 21:05 059 15.6
2014-Nov-21 20:55 059 16.1
2014-Nov-21 20:50 058 16.1
2014-Nov-21 20:45 058 16.1
2014-Nov-21 20:41 058 16.1
2014-Nov-21 20:35 058 15.6
2014-Nov-21 20:30 058 16.1
2014-Nov-21 20:25 058 16.1
2014-Nov-21 20:20 058 16.1
2014-Nov-21 20:15 058 16.1
2014-Nov-21 20:10 058 16.1
2014-Nov-21 20:04 058 16.1
2014-Nov-21 20:00 058 16.1
2014-Nov-21 19:55 058 16.1
2014-Nov-21 19:50 058 16.1
2014-Nov-21 19:44 058 16.1
2014-Nov-21 19:40 056 16.1
2014-Nov-21 19:35 058 16.1
2014-Nov-21 19:30 058 16.1
2014-Nov-21 19:25 054 16.1
2014-Nov-21 19:20 061 16.1
2014-Nov-21 19:14 073 16.1
2014-Nov-21 19:10 079 16.1
2014-Nov-21 19:04 127 16.1
2014-Nov-21 19:00 127 16.7
2014-Nov-21 18:55 127 16.7
2014-Nov-21 18:50 127 16.7
2014-Nov-21 18:49 127 16.7
2014-Nov-21 18:44 127 16.7
2014-Nov-21 18:34 127 16.7
2014-Nov-21 18:19 127 17.2
2014-Nov-21 18:05 127 17.2
2014-Nov-21 17:55 127 17.2
2014-Nov-21 17:50 127 17.2
2014-Nov-21 17:49 127 17.2
2014-Nov-21 17:44 127 17.2
2014-Nov-21 17:34 127 17.8
2014-Nov-21 17:19 127 17.8
2014-Nov-21 17:04 127 18.3
2014-Nov-21 16:55 128 18.3
2014-Nov-21 16:50 128 18.3
2014-Nov-21 16:49 128 18.3
2014-Nov-21 16:46 128 18.3
2014-Nov-21 16:34 128 18.3
2014-Nov-21 16:19 127 18.3
2014-Nov-21 16:04 117 18.3
2014-Nov-21 15:55 119 18.3
2014-Nov-21 15:49 086 18.3
2014-Nov-21 15:45 085 18.3
2014-Nov-21 15:34 099 18.9
2014-Nov-21 15:19 093 18.9
2014-Nov-21 15:04 104 0 18.9
2014-Nov-21 14:55 148 18.9
2014-Nov-21 14:49 102 0 18.9
2014-Nov-21 14:45 134 0 18.9
2014-Nov-21 14:34 143 0 18.9
2014-Nov-21 14:19 133 18.9
2014-Nov-21 14:04 143 19.4
2014-Nov-21 13:55 144 0 19.4
2014-Nov-21 13:49 137 0 19.4
2014-Nov-21 13:46 147 0 19.4
2014-Nov-21 13:34 140 0 19.4
2014-Nov-21 13:19 155 19.4
2014-Nov-21 13:04 078 19.4
2014-Nov-21 12:55 138 1 19.4
2014-Nov-21 12:51 127 1 19.4
2014-Nov-21 12:49 123 1 19.4
2014-Nov-21 12:45 133 1 19.4
2014-Nov-21 12:34 076 0 19.4
2014-Nov-21 12:19 131 0 19.4
2014-Nov-21 12:04 086 0 19.4
2014-Nov-21 11:49 158 0 19.4
2014-Nov-21 11:34 144 0 20.0
2014-Nov-21 11:19 123 0 20.0
2014-Nov-21 11:04 056 20.0
2014-Nov-21 10:55 049 20.0
2014-Nov-21 10:50 049 20.0
2014-Nov-21 10:49 048 20.0
2014-Nov-21 10:45 048 20.0
2014-Nov-21 10:34 052 19.4
2014-Nov-21 10:19 051 18.9
2014-Nov-21 10:04 040 18.3
2014-Nov-21 09:48 040 17.8
2014-Nov-21 09:34 042 17.8
2014-Nov-21 09:18 049 17.2
2014-Nov-21 09:04 049 17.2
2014-Nov-21 08:54 049 17.2
2014-Nov-21 08:51 051 17.2
2014-Nov-21 08:48 051 16.7
2014-Nov-21 08:45 051 16.7
2014-Nov-21 08:34 051 16.7
2014-Nov-21 08:18 051 16.7
2014-Nov-21 08:04 051 16.1
2014-Nov-21 07:56 051 15.6
2014-Nov-21 07:50 051 15.6
2014-Nov-21 07:45 051 15.6
2014-Nov-21 07:34 051 15.6
2014-Nov-21 07:20 051 15.6
2014-Nov-21 07:04 052 15.0
2014-Nov-21 06:55 052 15.6
2014-Nov-21 06:50 052 15.6
2014-Nov-21 06:49 052 15.6
2014-Nov-21 06:45 052 15.6
2014-Nov-21 06:34 052 15.6
2014-Nov-21 06:19 054 15.6
2014-Nov-21 06:04 054 15.6
2014-Nov-21 05:55 052 15.6
2014-Nov-21 05:50 052 15.6
2014-Nov-21 05:49 054 15.6
2014-Nov-21 05:45 052 15.6
2014-Nov-21 05:34 052 15.6
2014-Nov-21 05:19 054 15.6
2014-Nov-21 05:04 058 15.6
2014-Nov-21 04:49 058 15.6
2014-Nov-21 04:34 059 15.6
2014-Nov-21 04:19 059 15.6
2014-Nov-21 04:04 059 16.1
2014-Nov-21 03:55 059 16.1
2014-Nov-21 03:50 059 16.1
2014-Nov-21 03:49 058 16.1
2014-Nov-21 03:45 059 16.1
2014-Nov-21 03:34 059 16.1
2014-Nov-21 03:19 058 16.7
2014-Nov-21 03:04 055 16.1
2014-Nov-21 02:55 055 16.1
2014-Nov-21 02:50 055 16.7
2014-Nov-21 02:49 055 16.7
2014-Nov-21 02:45 055 16.7
2014-Nov-21 02:34 055 16.7
2014-Nov-21 02:19 055 16.7
2014-Nov-21 02:04 055 16.7